Content
SEND FEEDBACK

Daily
Averages
Monthly
Summary
United States of America

OLDTOWN, IDAHO


Home > North America > United States > Idaho
Elevation: 2373 feet     Latitude: 48 11N     Longitude: 117 03W

WEATHER
 
SELECT A DAY
Number of Records: 173,162;   Date Range: 1/7/99 - 12/17/14
 
SHARE

PRINT THIS DATA

[ ← Previous Day ]
WEATHER ALMANAC - JANUARY 31, 2013
[ Next Day → ]
[ °C ]   °F
Weather ElementAverageHighLow
Temperature33.5 °F36 °F (12:53 pm)28.4 °F (1:10 am)
Dewpoint33.2 °F35.6 °F (12:44 pm)28 °F (12:53 am)
Humidity98.9 %100 % (1:10 am)93 % (3:40 am)
Barometer30.23 in30.32 in (10:53 am)30.16 in (8:22 pm)
Wind Speed1.2 mph5.8 mph (2:53 pm)
Weather ElementAverage
Visibility2.4 mi
Wind DirectionENE (52 °)

Weather ElementTotal
Precipitation0.09 in
Heating Degree Days32.8 (Base 65)
Averaged from 54 records on January 31, 2013
WEATHER CONDITIONS BREAKOUT
WIND DIRECTION BREAKOUT
WEATHER BY HOUR - JANUARY 31, 2013
[ °C ]   °F
Local TimeTemperatureDewpointHumidityBarometerVisibilityWind DirectionWind SpeedGust SpeedPrecipitationEventsConditions
12:53 AM28.9 °F28.0 °F96 %30.29 in2.0 miCalmOvercast
1:10 AM28.4 °F28.4 °F100 %30.22 in1.0 miNW (310°)3.5 mphOvercast
1:33 AM28.4 °F28.4 °F100 %30.23 in3.0 miCalmOvercast
1:53 AM30.0 °F28.9 °F96 %30.30 in4.0 miCalmOvercast
2:53 AM30.9 °F30.0 °F96 %30.30 in4.0 miWNW (300°)3.5 mphOvercast
3:31 AM30.2 °F30.2 °F100 %30.23 in2.0 miCalmOvercast
3:40 AM32.0 °F30.2 °F93 %30.23 in1.2 miCalmOvercast
3:51 AM32.0 °F30.2 °F93 %30.23 in0.8 miCalmMist
3:53 AM32.0 °F30.9 °F96 %30.30 in0.5 miCalmFogFog
4:53 AM30.9 °F30.9 °F100 %30.30 in0.2 miCalmFogLight Freezing Fog
5:53 AM32.0 °F32.0 °F100 %30.29 in0.2 miCalmFogFog
6:53 AM32.0 °F32.0 °F100 %30.30 in0.2 miCalmFogFog
7:53 AM32.0 °F32.0 °F100 %30.30 in0.2 miCalmFogFog
8:53 AM32.0 °F32.0 °F100 %30.31 in0.2 miCalmFogFog
9:53 AM34.0 °F34.0 °F100 %30.31 in0.2 miCalmFogFog
10:53 AM34.0 °F34.0 °F100 %30.32 in0.2 miCalmFogFog
11:53 AM35.1 °F35.1 °F100 %30.30 in0.5 miCalmFogFog
12:44 PM35.6 °F35.6 °F100 %30.23 in1.2 miCalmOvercast
12:53 PM36.0 °F35.1 °F97 %30.29 in2.0 miCalmOvercast
1:03 PM35.6 °F35.6 °F100 %30.22 in3.0 miCalmOvercast
1:10 PM35.6 °F35.6 °F100 %30.22 in6.0 miSW (220°)4.6 mphOvercast
1:53 PM35.1 °F35.1 °F100 %30.27 in10.0 miSouth (180°)3.5 mphOvercast
2:05 PM35.6 °F35.6 °F100 %30.21 in8.0 miSouth (190°)4.6 mphOvercast
2:53 PM35.1 °F34.0 °F96 %30.28 in10.0 miSW (230°)5.8 mphOvercast
3:53 PM35.1 °F34.0 °F96 %30.27 in8.0 miSouth (170°)3.5 mph0.00 inOvercast
4:12 PM33.8 °F33.8 °F100 %30.20 in4.0 miCalm0.01 inOvercast
4:19 PM35.6 °F35.6 °F100 %30.20 in4.0 miCalm0.01 inOvercast
4:34 PM35.6 °F35.6 °F100 %30.20 in3.0 miCalm0.02 inOvercast
4:43 PM35.6 °F35.6 °F100 %30.20 in2.0 miCalm0.02 inRainLight Rain
4:53 PM35.1 °F35.1 °F100 %30.26 in2.0 miCalm0.03 inOvercast
4:59 PM35.6 °F35.6 °F100 %30.19 in1.8 miCalm0.00 inOvercast
5:15 PM33.8 °F33.8 °F100 %30.20 in0.8 miCalm0.00 inOvercast
5:25 PM33.8 °F33.8 °F100 %30.19 in1.0 miCalm0.00 inOvercast
5:45 PM33.8 °F33.8 °F100 %30.19 in3.0 miCalm0.00 inOvercast
5:47 PM33.8 °F33.8 °F100 %30.19 in2.5 miCalm0.00 inOvercast
5:53 PM34.0 °F34.0 °F100 %30.25 in1.8 miCalm0.00 inOvercast
6:02 PM33.8 °F33.8 °F100 %30.19 in1.0 miCalmOvercast
6:20 PM33.8 °F33.8 °F100 %30.19 in1.2 miCalmOvercast
6:40 PM33.8 °F33.8 °F100 %30.18 in0.8 miNorth (360°)3.5 mphOvercast
6:53 PM34.0 °F33.1 °F96 %30.25 in1.8 miNorth (10°)4.6 mphOvercast
7:00 PM33.8 °F33.8 °F100 %30.18 in2.5 miNorth (10°)3.5 mphOvercast
7:36 PM33.8 °F33.8 °F100 %30.18 in1.5 miCalmOvercast
7:48 PM33.8 °F33.8 °F100 %30.17 in0.8 miCalmOvercast
7:53 PM34.0 °F34.0 °F100 %30.23 in0.8 miCalmMostly Cloudy
8:01 PM33.8 °F33.8 °F100 %30.17 in0.8 miCalmMostly Cloudy
8:22 PM33.8 °F33.8 °F100 %30.16 in0.2 miCalmFogFog
8:53 PM33.1 °F33.1 °F100 %30.22 in0.8 miCalmOvercast
9:12 PM33.8 °F33.8 °F100 %30.16 in0.5 miCalmFogFog
9:20 PM33.8 °F32.0 °F93 %30.16 in1.0 miCalmOvercast
9:34 PM33.8 °F33.8 °F100 %30.16 in2.0 miSouth (170°)3.5 mphOvercast
9:42 PM33.8 °F33.8 °F100 %30.16 in3.0 miSSE (160°)3.5 mphOvercast
9:53 PM35.1 °F34.0 °F96 %30.21 in3.0 miSouth (170°)3.5 mphOvercast
10:53 PM36.0 °F35.1 °F97 %30.21 in6.0 miSSE (160°)5.8 mphOvercast
11:53 PM34.0 °F34.0 °F100 %30.22 in6.0 miSouth (170°)5.8 mphOvercast
Hourly data recorded from KDEW, located miles away from Oldtown, Idaho







STORIES FROM OUR PARTNERS